Location: Wapato
(46.4478°N, 120.4212°W)
Time: 15:23:21
(UTC+00:00)

Explorer 7 - Pass Details

Date: 11 May 2026
Orbit: 426 x 534 km, 50.2° (Epoch: 8 June)

Event Time Altitude Azimuth Distance (km) Brightness Sun altitude
Rises 16:06:45 0° 260° (W) 2,503 9.7 35.0°
Reaches altitude 10° 16:08:54 10° 264° (W) 1,647 8.9 35.3°
Maximum altitude 16:12:35 60° 345° (NNW) 567 7.2 35.9°
Drops below altitude 10° 16:16:26 10° 67° (ENE) 1,717 10.2 36.6°
Sets 16:18:43 0° 71° (ENE) 2,623 11.0 37.0°
